Flag for U.S.A. Weather past 2 weeks in Visalia, California, U.S.A.

Now
46 °F

Overcast.


Feels Like: 45 °F
Forecast: 42 / 55 °F
Wind: 3 mph from Southeast

Location: Visalia Municipal

Current Time: Dec 17, 2014 at 11:58:44 PM

Latest Report: Dec 17, 2014 at 11:35 PM


Visibility: 5 mi

Pressure: 30.15 "Hg

Humidity: 82%

Dew point: 41 °F

Location of VisaliaLocation

Historic Weather in Visalia — Graph

°F

Visalia temperature yesterday

Maximum temperature yesterday: 59 °F (at 2:55 PM)
Minimum temperature yesterday: 43 °F (at 7:15 AM)
Average temperature yesterday: 51 °F

Past Weeks' High & Low Weather Summary

 TemperatureHumidityPressure
High70 °F (Dec 3, 12:35 PM)94% (Dec 8, 12:55 PM)30.25 "Hg (Dec 8, 12:55 PM)
Low39 °F (Dec 15, 12:55 AM)40% (Dec 11, 11:55 PM)29.56 "Hg (Dec 11, 11:15 PM)
Average52 °F76%30.05 "Hg
* Reported Dec 2 10:15 PM — Dec 17 10:35 PM, Visalia, Weather by CustomWeather, © 2014

Note: Actual official high and low records may vary slightly from our data, if they occured in-between our weather recording intervals... More about our weather records

Advertising

Visalia weather history for previous 24 hours

 ConditionsComfort  
Time TempWeatherWind HumidityBarometerVisibility
10:35 PM
Dec 17
46 °FPassing clouds.5 mph76%30.15 "Hg6 mi
10:15 PM46 °FClear.5 mph82%30.15 "Hg7 mi
9:55 PM46 °FClear.5 mph82%30.15 "Hg5 mi
9:35 PM46 °FClear.6 mph82%30.15 "Hg5 mi
9:15 PM46 °FPassing clouds.6 mph82%30.15 "Hg5 mi
8:55 PM46 °FPassing clouds.5 mph87%30.15 "Hg5 mi
8:35 PM46 °FPassing clouds.6 mph82%30.15 "Hg4 mi
8:15 PM48 °FPassing clouds.6 mph82%30.14 "Hg5 mi
7:35 PM46 °FClear.5 mph82%30.14 "Hg5 mi
7:15 PM48 °FClear.5 mph82%30.13 "Hg7 mi
6:55 PM48 °FClear.3 mph82%30.12 "Hg9 mi
6:35 PM48 °FClear.No wind82%30.11 "Hg9 mi
6:15 PM50 °FClear.No wind76%30.11 "Hg10 mi
5:55 PM50 °FClear.6 mph76%30.10 "Hg10 mi
5:35 PM50 °FClear.No wind82%30.09 "Hg10 mi
5:15 PM52 °FClear.5 mph77%30.09 "Hg10 mi
4:55 PM54 °FClear.3 mph72%30.09 "Hg10 mi
4:35 PM54 °FSunny.3 mph72%30.09 "Hg10 mi
3:55 PM55 °FSunny.3 mph72%30.10 "Hg10 mi
3:35 PM55 °FSunny.3 mph72%30.10 "Hg10 mi
3:15 PM55 °FSunny.No wind72%30.09 "Hg10 mi
2:55 PM55 °FPassing clouds.No wind72%30.09 "Hg10 mi
2:35 PM55 °FPassing clouds.No wind72%30.08 "Hg10 mi
2:15 PM55 °FPassing clouds.No wind72%30.08 "Hg10 mi
1:55 PM54 °FScattered clouds.No wind77%30.08 "Hg10 mi
1:35 PM54 °FPartly sunny.No wind77%30.09 "Hg10 mi
1:15 PM54 °FPartly sunny.5 mph82%30.09 "Hg10 mi
12:55 PM54 °FMostly cloudy.3 mph77%30.10 "Hg10 mi
12:35 PM54 °FOvercast.3 mph77%30.10 "Hg10 mi
12:15 PM52 °FMore clouds than sun.No wind82%30.10 "Hg10 mi
11:55 AM52 °FMore clouds than sun.No wind82%30.11 "Hg10 mi
11:35 AM52 °FCloudy.5 mph82%30.10 "Hg8 mi
11:15 AM50 °FLow clouds.5 mph82%30.10 "Hg8 mi
10:55 AM50 °FOvercast.6 mph82%30.10 "Hg9 mi
10:35 AM50 °FOvercast.7 mph82%30.09 "Hg4 mi
10:15 AM50 °FOvercast.6 mph82%30.09 "Hg7 mi
9:55 AM50 °FLow clouds.7 mph82%30.09 "Hg10 mi
9:35 AM50 °FLow clouds.7 mph82%30.08 "Hg10 mi
9:15 AM50 °FLow clouds.6 mph82%30.07 "Hg10 mi
8:55 AM50 °FLow clouds.7 mph82%30.06 "Hg10 mi
8:35 AM50 °FLow clouds.9 mph82%30.05 "Hg10 mi
8:15 AM50 °FLow clouds.7 mph82%30.04 "Hg8 mi
7:55 AM50 °FLow clouds.7 mph82%30.03 "Hg10 mi
7:35 AM50 °FLow clouds.7 mph82%30.03 "Hg10 mi
7:15 AM50 °FMostly cloudy.6 mph82%30.03 "Hg10 mi
6:55 AM50 °FOvercast.7 mph82%30.01 "Hg5 mi
6:35 AM50 °FMostly cloudy.10 mph82%30.01 "Hg4 mi
6:15 AM50 °FLow clouds.5 mph82%30.01 "Hg3 mi
5:55 AM50 °FLow clouds.No wind82%30.00 "Hg3 mi
5:35 AM50 °FMostly cloudy.No wind82%29.99 "Hg3 mi
5:15 AM50 °FMostly cloudy.No wind82%29.99 "Hg3 mi
4:55 AM50 °FOvercast.No wind82%29.98 "Hg5 mi
4:35 AM50 °FOvercast.5 mph82%29.97 "Hg5 mi
4:15 AM50 °FOvercast.5 mph82%29.97 "Hg5 mi
3:55 AM50 °FMostly cloudy.3 mph82%29.97 "Hg3 mi
3:35 AM50 °FMostly cloudy.5 mph82%29.97 "Hg2 mi
3:15 AM52 °FMostly cloudy.5 mph77%29.96 "Hg2 mi
2:55 AM52 °FMostly cloudy.3 mph77%29.96 "Hg2 mi
2:35 AM52 °FOvercast.6 mph77%29.97 "Hg2 mi
2:15 AM52 °FMostly cloudy.7 mph77%29.96 "Hg3 mi
1:55 AM52 °FMostly cloudy.3 mph77%29.96 "Hg3 mi
1:35 AM52 °FOvercast.No wind77%29.96 "Hg3 mi
1:15 AM52 °FOvercast.5 mph77%29.95 "Hg3 mi
12:55 AM52 °FOvercast.No wind77%29.94 "Hg4 mi
12:35 AM52 °FOvercast.3 mph77%29.95 "Hg3 mi
12:15 AM50 °FOvercast.7 mph82%29.95 "Hg3 mi
11:55 PM
Dec 16
50 °FOvercast.5 mph82%29.96 "Hg3 mi
11:35 PM50 °FOvercast.5 mph82%29.96 "Hg3 mi
11:15 PM52 °FMostly cloudy.No wind82%29.96 "Hg5 mi
Weather by CustomWeather, © 2014

See weather overviewHow to use our weather pages